Location: Arrondissement d�Arles
(43.6667°N, 4.7500°E)
Time: 11:29:29
(UTC+00:00)

Daily predictions for brighter satellites

Satellite Brightness Start Highest point End
(mag) Time Altitude Azimuth Time Altitude Azimuth Time Altitude Azimuth
Cosmos 1727 Rocket 4.3 19:17:05 10° N 19:23:19 53° ENE 19:29:29 10° SSE
Cosmos 1151 Rocket 4.2 19:23:30 10° NNW 19:27:36 46° W 19:31:40 10° SSW
Cosmos 1656 4.1 19:22:26 10° NNW 19:27:42 45° ENE 19:32:59 10° SE
Cosmos 1633 2.8 19:26:28 10° SSW 19:30:00 70° WNW 19:33:31 10° N
Resurs 01 Rocket 2.6 19:28:15 10° SE 19:32:09 31° ENE 19:36:04 10° N
Cosmos 972 Rocket 4.0 19:29:24 10° NNW 19:34:22 61° ENE 19:39:11 10° SSE
Cosmos 1441 Rocket 4.1 19:33:55 10° SSE 19:37:14 29° E 19:40:34 10° NNE
Cosmos 614 Rocket 4.4 19:35:54 10° S 19:40:41 41° ESE 19:45:34 10° NE
Cosmos 1900 4.3 19:38:58 10° SSW 19:43:53 84° ESE 19:48:56 10° NNE
MONITOR-E 3.6 19:44:43 10° S 19:47:04 75° WSW 19:49:27 10° NNW
IRIDIUM 103 4.5 19:43:54 10° SSE 19:48:59 56° E 19:54:06 10° NNE
USA 267 3.3 19:43:00 10° NE 19:49:30 64° SE 19:55:58 10° SW
Cosmos 1821 Rocket 4.2 19:45:14 10° SSE 19:51:06 51° E 19:57:04 10° NNE
COSMOS 2406 3.2 19:47:16 10° SSW 19:52:57 67° ESE 19:58:39 10° NNE
Shenzhou-11 Module 1.2 19:51:38 10° W 19:54:00 71° S 19:55:30 19° E
Cosmos 1743 Rocket 4.1 19:49:50 10° SSW 19:54:13 64° W 19:58:41 10° N
CZ-2C R/B 3.6 19:52:48 10° NNE 19:57:26 74° ESE 20:01:58 10° S
Intercosmos 25 3.6 19:54:41 10° N 19:58:57 47° ENE 20:01:25 16° SSE
Lacrosse 5 4.0 19:56:31 10° NW 20:00:10 19° N 20:03:51 10° ENE
Cosmos 1862 3.3 19:58:25 10° S 20:02:28 84° E 20:06:32 10° N
Sich 1 3.2 19:59:04 10° S 20:03:22 53° E 20:07:43 10° NNE
Cosmos 2369 4.2 19:58:24 10° NNW 20:03:55 46° ENE 20:08:05 17° SE
SJ-6B 4.3 20:00:59 10° SSW 20:04:47 37° W 20:08:33 10° NNW
IRIDIUM 106 4.3 20:02:03 10° S 20:07:15 83° E 20:12:30 10° N
BREEZE-M DEB (TANK) 4.0 20:04:23 10° W 20:07:35 28° NNW 20:09:26 10° NE
Meteor 2-6 Rocket 4.3 20:02:40 10° NNW 20:08:10 78° W 20:13:48 10° S
Cosmos 2082 Rocket 2.8 20:03:03 10° S 20:08:11 36° ESE 20:13:19 10° NE
Cosmos 1818 3.8 20:03:01 10° NNW 20:08:28 62° NE 20:12:24 19° SE
Cosmos 2123 Rocket 4.4 20:07:54 10° N 20:13:50 44° ENE 20:18:06 18° SE
Spot 2 Rocket 4.0 20:11:25 18° SE 20:14:48 43° ENE 20:19:36 10° N
Cosmos 1000 Rocket 4.5 20:11:05 10° N 20:17:22 76° E 20:23:05 12° SSE
Resurs 1-3 4.2 20:14:10 10° S 20:18:29 56° W 20:22:48 10° NNW
Cosmos 2239 Rocket 4.4 20:14:16 10° S 20:20:23 74° E 20:26:31 10° NNE
Cosmos 2322 Rocket 4.4 20:18:04 10° NNE 20:20:26 12° NE 20:22:47 10° ENE
Cosmos 1190 Rocket 4.1 20:15:51 10° S 20:20:58 56° ESE 20:26:10 10° NNE
Cosmos 1184 Rocket 4.1 20:21:01 23° E 20:21:02 23° E 20:23:44 10° NE
Meteor 1-4 Rocket 3.3 20:18:12 10° N 20:21:25 34° ENE 20:22:26 28° ESE
Terra 3.6 20:21:08 14° E 20:23:01 18° ENE 20:26:10 10° NNE
Cosmos 407 Rocket 3.4 20:18:35 10° SSW 20:23:53 74° ESE 20:29:11 10° NNE
USA 234 3.7 20:18:46 15° ESE 20:24:06 55° NNE 20:30:27 10° NW
Cosmos 1666 Rocket 3.5 20:21:28 15° S 20:24:58 60° E 20:29:14 10° NNE
CZ-2C R/B 3.9 20:20:14 10° N 20:25:04 41° WNW 20:29:55 10° SW
SL-8 R/B 3.9 20:21:25 10° WNW 20:26:11 59° SSW 20:28:49 25° SE
Cosmos 1238 Rocket 4.3 20:28:02 14° ENE 20:28:02 14° ENE 20:29:01 10° NE
MetOp-B 4.1 20:25:45 19° SSE 20:29:42 78° ENE 20:35:05 10° N
Meteor 1-27 Rocket 3.8 20:26:21 10° N 20:32:19 85° E 20:36:53 18° S
USA 238 DEB 4.0 20:30:38 10° S 20:36:42 40° ESE 20:42:58 10° NE
USA 238 4.0 20:30:47 10° S 20:36:49 40° ESE 20:43:04 10° NE
SPOT 5 3.7 20:35:54 24° E 20:37:11 28° ENE 20:40:54 10° N
BREEZE-M DEB (TANK) 3.3 20:34:15 10° WNW 20:37:58 24° SW 20:39:00 19° SSW
SPOT 1/Viking Rocket 3.6 20:39:53 28° SE 20:42:37 63° ENE 20:47:47 10° N
Cosmos 1980 Rocket 2.4 20:38:50 10° NNW 20:44:26 56° ENE 20:47:05 30° SE
SL-4 R/B 1.8 20:43:07 10° WSW 20:47:06 83° NNW 20:50:47 10° ENE
BREEZE-M DEB (TANK) 3.6 20:45:58 10° WNW 20:48:40 42° N 20:55:16 10° ENE
Cosmos 405 Rocket 3.8 20:49:21 27° ENE 20:49:21 27° ENE 20:51:59 10° NNE
Cosmos 1140 Rocket 3.5 20:44:19 10° SSW 20:49:33 86° WNW 20:54:51 10° NNE
Genesis I 3.9 20:46:06 10° NNW 20:49:48 42° NE 20:50:44 35° E
ATLAS 5 CENTAUR R/B 3.3 20:47:22 10° NW 20:52:56 43° WSW 20:57:17 19° S
USA 32 4.0 20:53:02 29° SSE 20:55:40 68° E 21:00:53 10° N
Cosmos 1633 Rocket 3.2 20:55:05 19° SSW 20:58:15 72° W 21:02:41 10° N
Cosmos 1833 Rocket 3.4 20:53:19 10° SW 20:58:48 55° WNW 21:04:21 10° NNE
Cosmos 1697 Rocket 3.0 20:54:35 10° NNW 21:00:08 61° WSW 21:03:04 28° S
Cosmos 1867 3.4 20:59:46 10° SSW 21:05:12 83° ESE 21:10:41 10° NE
CENTAUR R/B 2.9 21:04:46 35° ESE 21:05:18 36° ESE 21:11:18 10° NE
Meteor 1-18 Rocket 4.5 21:02:50 10° N 21:08:18 50° ENE 21:09:49 40° ESE
Okean 1-7 4.0 21:04:34 10° NNE 21:08:26 30° ENE 21:08:30 30° ENE
Resurs 01 Rocket 3.5 21:05:06 11° SSW 21:08:38 26° W 21:12:21 10° NW
Landsat 7 4.3 21:08:59 29° SSW 21:11:13 57° W 21:15:55 10° NNW
FALCON 9 DEB 3.5 21:09:19 10° WSW 21:12:47 64° NNW 21:15:21 17° NE
Cosmos 676 Rocket 4.1 21:14:02 15° SSW 21:18:27 77° WNW 21:23:50 10° NNE
IGS 5A 4.5 21:17:35 29° SW 21:19:05 40° W 21:23:01 10° NNW
Meteor 1-25 Rocket 4.1 21:17:53 31° S 21:20:39 89° W 21:26:18 10° N
Cosmos 1470 Rocket 3.7 21:19:31 41° SSW 21:20:58 74° W 21:25:23 10° N
Cosmos 192 4.3 21:16:55 10° NNW 21:21:51 84° WSW 21:22:57 55° S
ATLAS 5 CENTAUR R/B 4.0 21:19:39 10° N 21:21:56 19° NE 21:23:25 16° ENE
GP-B 4.1 21:24:26 10° NNW 21:28:39 43° W 21:30:41 26° SW
NOSS 3-2 (A) 3.3 21:25:36 10° SW 21:31:14 89° NW 21:37:43 10° NE
USA 267 4.2 21:26:09 10° NE 21:32:22 48° NNW 21:38:35 10° W
Cosmos 921 Rocket 2.8 21:30:34 10° NNW 21:34:48 81° WSW 21:34:50 81° WSW
NOSS 3-2 (C) 3.2 21:35:52 50° S 21:37:09 64° ESE 21:43:27 10° NE
ERS-1 Rocket 3.2 21:36:08 46° SSW 21:37:24 62° WSW 21:42:25 10° NNW
Cosmos 841 Rocket 4.4 21:36:38 10° N 21:41:24 34° ENE 21:42:00 33° ENE
SAR-Lupe-2 4.3 21:38:25 10° N 21:41:53 48° WNW 21:41:55 48° WNW
Cosmos 540 Rocket 4.4 21:38:09 10° N 21:42:50 33° ENE 21:43:22 33° ENE
SL-16 R/B 2.6 21:37:46 10° NNW 21:43:19 50° ENE 21:44:17 45° E
Lacrosse 5 2.7 21:39:24 10° NW 21:44:17 44° NNE 21:45:31 37° ENE
Cosmos 468 Rocket 3.9 21:39:49 10° NNW 21:45:11 77° ENE 21:45:45 68° SE
Cosmos 1741 Rocket 3.8 21:48:23 72° SE 21:48:38 74° ESE 21:53:55 10° NNE
Cosmos 2082 Rocket 3.6 21:46:59 10° WSW 21:52:13 37° NW 21:57:28 10° N
Terra 2.1 22:00:02 56° WSW 22:00:19 57° W 22:05:01 10° NNW
Cosmos 2322 Rocket 2.3 22:00:03 10° NNW 22:05:43 61° ENE 22:06:13 59° E
Cosmos 2100 Rocket 3.8 22:05:35 64° S 22:06:38 87° E 22:12:49 10° N
USA 234 3.5 22:06:06 48° SSW 22:07:08 52° SW 22:13:30 10° WNW
Meteor 1-11 Rocket 4.1 22:09:09 47° E 22:09:09 47° E 22:14:11 10° NNE
Cosmos 1437 Rocket 4.0 22:08:07 10° NNW 22:10:50 38° NW 22:10:50 38° NW
Cosmos 1869 Rocket 4.0 22:13:01 62° NNW 22:13:01 62° NNW 22:16:49 10° N
SPOT 5 4.1 22:15:08 27° W 22:15:15 27° W 22:18:56 10° NW
Cosmos 2360 Rocket 2.8 22:14:26 10° NNW 22:19:52 44° ENE 22:20:19 43° ENE
ATLAS 3B R/B 3.0 22:21:13 44° E 22:21:13 44° E 22:26:29 10° NE
Geosat 4.0 22:20:48 75° NE 22:20:48 75° NE 22:25:40 10° NNW
Iridium 4 Rocket 3.6 22:21:44 56° NNW 22:21:44 56° NNW 22:25:13 10° N
Cosmos 2173 Rocket 4.0 22:21:10 62° SW 22:22:13 77° W 22:28:23 10° N
ALOS 2 4.1 22:27:44 29° NE 22:27:44 29° NE 22:30:44 10° N
SL-4 R/B 3.8 22:23:48 10° WNW 22:27:02 27° NNW 22:27:13 26° N
Cosmos 1725 Rocket 4.0 22:27:19 66° ESE 22:27:31 67° E 22:33:47 10° NNE
Cosmos 1980 Rocket 3.8 22:23:43 10° NW 22:27:58 22° W 22:28:51 21° WSW
Cosmos 1763 Rocket 4.1 22:26:11 10° NNW 22:31:09 49° W 22:31:09 49° W
SL-08 R/B 4.3 22:32:19 74° E 22:32:22 74° E 22:38:27 10° NNE
Cosmos 2333 Rocket 3.6 22:35:15 10° N 22:40:13 29° NE 22:41:19 27° ENE
Cosmos 2016 Rocket 3.9 22:39:51 74° SW 22:40:25 82° W 22:46:50 10° N
Cosmos 2061 Rocket 3.9 22:41:22 75° SW 22:41:50 81° W 22:48:04 10° N
Lacrosse 4 Rocket 4.0 22:45:23 14° NE 22:45:23 14° NE 22:46:01 10° NE
Meteor 1-13 Rocket 4.2 22:38:07 10° NNW 22:43:23 74° WNW 22:43:23 74° WNW
Cosmos 1459 Rocket 4.5 22:42:36 46° WSW 22:43:55 54° WNW 22:50:09 10° N
MOS 1-B Rocket 3.9 22:40:42 10° N 22:46:21 68° WNW 22:46:43 65° W
Cosmos 1733 Rocket 4.3 22:50:59 39° NNE 22:50:59 39° NNE 22:53:50 10° N
Cosmos 1864 Rocket 4.4 22:53:23 76° WSW 22:53:39 78° W 22:59:54 10° N
Cosmos 1066 Rocket 4.3 22:48:28 10° N 22:53:46 72° NE 22:53:46 72° NE
CENTAUR R/B 3.4 22:51:50 22° WSW 22:55:42 48° NW 23:02:36 10° NNE
Meteor 1-23 Rocket 4.3 22:50:11 10° N 22:55:43 74° NE 22:55:43 74° NE
Thor Agena Rocket 3.8 22:52:31 10° N 22:57:00 64° NNW 22:57:00 64° NNW
Cosmos 967 Rocket 4.4 22:54:48 10° NW 23:01:03 82° W 23:01:03 82° W
Cosmos 44 4.1 22:57:57 10° NW 23:01:33 48° NW 23:01:33 48° NW
Cosmos 2233 Rocket 3.9 23:14:31 85° WNW 23:14:31 85° WNW 23:20:52 10° N
SL-16 R/B 3.8 23:22:32 10° NW 23:26:08 24° W 23:26:08 24° W
Lacrosse 5 3.6 23:22:29 10° WNW 23:24:41 24° WNW 23:24:41 24° WNW
Cosmos 1833 4.5 23:28:44 63° NW 23:28:44 63° NW 23:34:02 10° NNE
Cosmos 2322 3.9 23:24:32 10° NNW 23:29:31 68° N 23:29:31 68° N
Cosmos 2219 Rocket 2.5 23:33:06 10° NNW 23:38:19 64° NNE 23:38:19 64° NNE
Cosmos 2322 Rocket 4.1 23:45:10 10° NW 23:48:01 19° W 23:48:01 19° W
Cosmos 1891 Rocket 4.5 23:53:06 79° E 23:53:06 79° E 23:59:26 10° N
CZ-2D R/B 4.4 23:52:16 10° ENE 23:54:55 14° E 23:54:55 14° E
